Hourly Data Report for January 24, 2022

ST. JOHN'S INTL A
NEWFOUNDLAND
Current Station Operator: NAVCAN

47°37'07.000" N
52°45'09.000" W
140.50 m
8403505
71801
YYT

Download Data

Hourly Data (January 2022)
Hourly Data Report for January 24, 2022
TIME
LST
Temp Definition
°C
Dew Point Definition
°C
Rel Hum Definition
%
Precip. Amount Definition
mm

Wind Dir Definition
10's deg

Wind Spd Definition
km/h
Visibility Definition
km
Stn Press Definition
kPa
Hmdx Definition


Wind Chill Definition


Weather Definition


00:30 -5.7 -8.0 84   24 9 24.1 99.59   -10 LegendNANA
01:30 -5.9 -8.3 83   23 10 24.1 99.62   -10 LegendNANA
02:30 -4.1 -7.1 80   22 13 24.1 99.67   -9 Cloudy
03:30 -3.5 -6.1 82   22 14 24.1 99.72   -9 LegendNANA
04:30 -3.4 -5.8 84   21 11 24.1 99.78   -8 LegendNANA
05:30 -2.9 -6.0 79   21 18 24.1 99.83   -9 Mostly Cloudy
06:30 -3.0 -6.0 80   19 17 24.1 99.83   -9 LegendNANA
07:30 -2.5 -6.0 77   21 17 24.1 99.84   -8 LegendNANA
08:30 -2.3 -5.6 79   20 19 24.1 99.90   -8 Cloudy
09:30 -1.8 -5.2 78   19 18 24.1 99.97   -7 LegendNANA
10:30 -0.8 -3.3 83   18 26 24.1 99.94   -7 LegendNANA
11:30 -0.2 -1.8 88   18 30 24.1 99.86   -7 Cloudy
12:30 0.2 -1.3 90   19 27 24.1 99.80     LegendNANA
13:30 0.2 -1.2 90   19 34 24.1 99.81     LegendNANA
14:30 -0.1 -0.8 95   18 31 1.6 99.76   -7 Snow
15:30 -0.1 -0.6 96   17 32 9.7 99.74   -7 Snow Showers
16:30 -0.2 -0.7 96   17 35 2.4 99.70   -7 Snow
17:30 -0.4 -0.7 97   15 32 1.6 99.56   -7 Snow
18:30 -0.5 -1.4 94   15 44 9.7 99.34   -8 Blowing Snow
19:30 -0.9 -1.4 96   15 45 3.2 99.18   -9 Snow,Blowing Snow
20:30 -1.0 -1.4 97   15 48 2.4 99.12   -9 Freezing Rain, Snow,Blowing Snow
21:30 -1.1 -1.4 98   16 52 4.0 98.99   -10 Freezing Rain,Ice Pellets, Fog
22:30 -0.5 -0.8 98   16 43 1.0 98.86   -8 Freezing Rain, Snow, Fog
23:30 -0.1 -0.2 99   16 39 0.8 98.65   -7 Freezing Rain, Freezing Fog

Notes on Data Quality.

Legend

  • E = Estimated
  • M = Missing
  • NA = Not Available*
  • [empty] = Indicates an unobserved value
Date modified: